STARLINK-1874 (47159 NORAD) Tracking and Keplerian Element Data

This shows tracking and keplerian element data for the satellite.

Feedback or suggestion? Click here.




ElementValue
Catalog47159
NameSTARLINK-1874
Epoch Orbit1569
Epoch Day60.91667824
Epoch Year2021
RAAN253.7497
Inclination53.0543
Eccentricity0.0002271
Argument of Perigee97.0725
Mean Anonmoly308.8428
Mean Motion15.06370299
Decay Rate0.00023001
L11 47159U 20088AP 21060.91667824 .00023001 00000-0 15592-2 0 9996
L22 47159 53.0543 253.7497 0002271 97.0725 308.8428 15.06370299 15693

Live tracking and technical data element details for STARLINK-1874 (NORAD 47159). STARLINK-1874 can be tracked NOW for your location showing map with azimuth and elevation plus other details from your city location.

Track the satellite on the map from your city or location and see movement details for azimuth, elevation, latitude, longitude, range, height, and movement on the map or in text.







IsCatalogInMostPopularTable: catalog: 47159, numindb: 38
Update: records affected: 1



GetName: 47159 STARLINK-1874

Hit Count: updated at: Tue, 02 Mar 2021 13:04:31 GMT